Location: NJAA Observatory
(40.6819°N, 74.8979°W)
Time: 18:55:35
(UTC-04:00)

Cosmos 2237 Rocket - Visible Passes

Search period start: 29 July 2014 00:00
Search period end: 08 August 2014 00:00
Orbit: 833 x 852 km, 71.0° (Epoch: 29 July)

Date Brightness Start Highest point End Pass type
(mag) Time Alt. Az. Time Alt. Az. Time Alt. Az.
29 Jul 4.2 21:23:24 10° NNE 21:26:49 16° NE 21:30:12 10° E visible
29 Jul 2.1 23:05:56 10° NNW 23:11:40 86° WSW 23:12:28 67° SSE visible
30 Jul 4.6 00:53:38 10° W 00:54:18 11° W 00:54:18 11° W visible
30 Jul 4.2 21:08:46 10° NNE 21:12:02 15° NE 21:15:16 10° E visible
30 Jul 2.1 22:51:11 10° NNW 22:56:55 90° ENE 22:58:05 59° SSE visible
31 Jul 4.5 00:38:24 10° WNW 00:39:55 11° W 00:39:55 11° W visible
31 Jul 4.2 20:54:08 10° NNE 20:57:14 15° NE 21:00:20 10° E visible
31 Jul 2.1 22:36:27 10° NNW 22:42:11 86° ENE 22:43:44 51° SSE visible
01 Aug 4.5 00:23:19 10° WNW 00:25:23 12° W 00:25:34 12° W visible
01 Aug 2.1 22:21:42 10° NNW 22:27:26 83° ENE 22:29:25 43° SSE visible
02 Aug 4.4 00:08:17 10° WNW 00:10:41 13° W 00:11:15 13° WSW visible
02 Aug 2.2 22:06:58 10° NNW 22:12:42 79° ENE 22:15:08 36° SSE visible
02 Aug 4.4 23:53:19 10° WNW 23:55:59 14° W 23:56:59 13° WSW visible
03 Aug 2.2 21:52:14 10° NNW 21:57:58 76° ENE 22:00:54 30° SSE visible
03 Aug 4.4 23:38:22 10° WNW 23:41:16 14° W 23:42:45 13° WSW visible
04 Aug 2.2 21:37:30 10° NNW 21:43:13 72° ENE 21:46:43 24° SE visible
04 Aug 4.4 23:23:27 10° WNW 23:26:34 15° W 23:28:34 13° WSW visible
05 Aug 2.2 21:22:47 10° NNW 21:28:29 69° ENE 21:32:35 19° SE visible
05 Aug 4.4 23:08:33 10° WNW 23:11:52 16° W 23:14:26 12° SW visible
06 Aug 2.3 21:08:03 10° NNW 21:13:44 66° ENE 21:18:30 15° SE visible
06 Aug 4.4 22:53:40 10° WNW 22:57:10 17° W 23:00:22 11° SW visible
07 Aug 2.3 20:53:19 10° NNW 20:58:59 63° ENE 21:04:29 11° SE visible
07 Aug 4.4 22:38:48 10° WNW 22:42:28 18° W 22:46:06 10° SW visible
